Location: Zagreb
(45.8000°N, 16.0000°E)
Time: 01:10:13
(UTC+01:00)

NUDT-PHONESAT - Pass Details

Date: 01 November 2020
Orbit: 481 x 500 km, 97.4° (Epoch: 30 November)

Event Time Altitude Azimuth Distance (km) Brightness Sun altitude
Rises 17:50:25 0° 172° (S) 2,585 ? -12.4°
Reaches altitude 10° 17:52:29 10° 175° (S) 1,707 ? -12.7°
Maximum altitude 17:56:09 67° 258° (WSW) 551 ? -13.4°
Drops below altitude 10° 17:59:50 10° 342° (NNW) 1,720 ? -14.0°
Sets 18:01:57 0° 345° (NNW) 2,608 ? -14.4°
